Mattoon, IL

11:59 AM CDT on October 17, 2019 (GMT -0500)
Coles County Memorial

Weather History for KMTO - May, 2019

Change the Weather History Date:

Saturday, May 11, 2019

  Actual Average Record
Temperature  
Mean Temperature 48 °F 62 °F  
Max Temperature 54 °F 72 °F 88 °F (2005)
Min Temperature 41 °F 52 °F 35 °F (1949)
Degree Days  
Heating Degree Days 17 5  
Month to date heating degree days 73 63  
Since 1 July heating degree days 5460 5325  
Cooling Degree Days 0 2  
Month to date cooling degree days 5 13  
Year to date cooling degree days 10 27  
Moisture  
Dew Point 45 °F    
Average Humidity 78    
Maximum Humidity 96    
Minimum Humidity 59    
Precipitation  
Precipitation 0.07 in 0.15 in 1.74 in (1971)
Month to date precipitation 0.81 1.68  
Year to date precipitation 9.83 11.66  
Sea Level Pressure  
Sea Level Pressure 29.95 in    
Wind  
Wind Speed 9 mph (NE)    
Max Wind Speed 16 mph    
Max Gust Speed 23 mph    
Visibility 7 miles    
Events Rain    
T = Trace of Precipitation, MM = Missing Value Source: NWS Daily Summary

Daily Weather History Graph

Daily Weather History Graph

Search for Another Location

Airport or City:

Astronomy

May. 11, 2019 Rise Set
Actual Time 5:43 AM CDT 7:56 PM CDT
Civil Twilight 5:13 AM CDT 8:26 PM CDT
Nautical Twilight 4:36 AM CDT 9:03 PM CDT
Astronomical Twilight 3:56 AM CDT 9:43 PM CDT
Moon 11:51 AM CDT (5/11) 1:37 AM CDT (5/11)
Length of Visible Light 15h 13m
Length of Day
14h 13m
Waxing Crescent, 46% of the Moon is Illuminated
May 11
Waxing Crescent
May 11
First Quarter
May 18
Full
May 26
Last Quarter
Jun 3
New

Hourly Weather History & Observations

Time (CDT) Temp. Windchill Dew Point Humidity Pressure Visibility Wind Dir Wind Speed Gust Speed Precip Events Conditions
12:53 AM 45.0 °F 42.6 °F 42.1 °F 90% 30.13 in 10.0 mi SSE 4.6 mph - N/A   Clear
1:53 AM 45.0 °F - 42.1 °F 90% 30.12 in 10.0 mi Calm Calm - N/A   Clear
2:53 AM 43.0 °F 41.3 °F 41.0 °F 93% 30.11 in 10.0 mi NNE 3.5 mph - N/A   Clear
3:53 AM 41.0 °F 38.0 °F 39.0 °F 93% 30.10 in 10.0 mi NNE 4.6 mph - N/A   Clear
4:53 AM 41.0 °F 38.0 °F 39.0 °F 93% 30.09 in 10.0 mi ENE 4.6 mph - N/A   Clear
5:53 AM 42.1 °F 40.2 °F 39.9 °F 92% 30.08 in 10.0 mi NE 3.5 mph - N/A   Clear
6:53 AM 45.0 °F 41.2 °F 41.0 °F 86% 30.06 in 10.0 mi ENE 6.9 mph - N/A   Clear
7:53 AM 48.9 °F - 39.9 °F 71% 30.06 in 10.0 mi ENE 9.2 mph - N/A   Clear
8:53 AM 51.1 °F - 39.9 °F 66% 30.06 in 10.0 mi NE 10.4 mph - N/A   Clear
9:53 AM 54.0 °F - 39.0 °F 57% 30.03 in 10.0 mi ENE 15.0 mph - N/A   Clear
10:53 AM 52.0 °F - 39.0 °F 61% 30.05 in 10.0 mi ENE 3.5 mph - 0.00 in Rain Light Rain
11:53 AM 51.1 °F - 42.1 °F 71% 30.04 in 9.0 mi NNE 8.1 mph - 0.00 in Rain Light Rain
12:53 PM 50.0 °F - 45.0 °F 83% 29.98 in 10.0 mi ENE 12.7 mph - 0.00 in Rain Light Rain
1:53 PM 50.0 °F - 46.0 °F 86% 29.94 in 7.0 mi ENE 13.8 mph - 0.01 in Rain Light Rain
2:53 PM 50.0 °F - 46.9 °F 89% 29.95 in 4.0 mi NNE 9.2 mph - 0.01 in Rain Rain
3:50 PM 50.0 °F - 46.4 °F 87% 29.92 in 4.0 mi NNE 11.5 mph - 0.02 in Rain Rain
3:53 PM 50.0 °F - 46.9 °F 89% 29.93 in 4.0 mi NNE 10.4 mph - 0.02 in Rain Rain
4:06 PM 50.0 °F - 48.0 °F 93% 29.91 in 5.0 mi North 10.4 mph - 0.01 in Rain Light Rain
4:53 PM 50.0 °F - 48.0 °F 93% 29.92 in 3.0 mi NNE 11.5 mph - 0.02 in Rain Light Rain
5:09 PM 50.0 °F - 48.0 °F 93% 29.90 in 4.0 mi NNE 12.7 mph - 0.00 in Rain Light Rain
5:53 PM 50.0 °F - 48.0 °F 93% 29.89 in 4.0 mi NNE 12.7 mph - 0.01 in Rain Light Rain
6:53 PM 50.0 °F - 48.0 °F 93% 29.87 in 8.0 mi ENE 12.7 mph - 0.00 in Rain Light Rain
7:02 PM 50.0 °F - 48.0 °F 93% 29.86 in 8.0 mi NE 10.4 mph - 0.00 in   Overcast
7:13 PM 50.0 °F - 48.0 °F 93% 29.85 in 9.0 mi ENE 13.8 mph - 0.00 in   Overcast
7:53 PM 50.0 °F - 48.0 °F 93% 29.86 in 10.0 mi NE 12.7 mph - 0.00 in   Overcast
8:33 PM 50.0 °F - 46.9 °F 89% 29.85 in 8.0 mi NE 11.5 mph - N/A   Overcast
8:53 PM 50.0 °F - 48.0 °F 93% 29.86 in 6.0 mi NE 10.4 mph - N/A   Overcast
9:02 PM 50.0 °F - 48.0 °F 93% 29.85 in 5.0 mi NE 9.2 mph - N/A   Overcast
9:53 PM 50.0 °F - 48.0 °F 93% 29.86 in 4.0 mi NNE 9.2 mph - N/A   Overcast
10:48 PM 48.2 °F - 48.2 °F 100% 29.84 in 2.5 mi NNE 12.7 mph - 0.00 in Rain Light Rain
10:53 PM 48.9 °F - 48.0 °F 97% 29.85 in 2.5 mi NNE 13.8 mph - 0.00 in Rain Light Rain
11:18 PM 48.9 °F - 46.9 °F 93% 29.84 in 3.0 mi NNE 15.0 mph - 0.00 in Rain Light Rain
11:26 PM 48.9 °F - 46.9 °F 93% 29.83 in 3.0 mi NNE 12.7 mph - 0.00 in Rain Light Rain
11:53 PM 48.0 °F - 46.0 °F 93% 29.83 in 4.0 mi NE 12.7 mph - 0.00 in   Overcast